Regional Weather Roundup
Issued by NWS Cleveland, OH

Home | Current Version | Previous Version | Graphics & Text | Print | Product List | Glossary On
Versions: 1 2 3 4 5 6 7 8 9 10 11 12 13 14 15 16 17 18 19 20 21 22 23 24 25 26 27 28 29 30 31 32 33 34 35 36 37 38 39 40 41 42 43 44 45 46 47 48 49 50
000
ASUS41 KCLE 182310
RWRCLE
OHIO REGIONAL WEATHER ROUNDUP
NATIONAL WEATHER SERVICE CLEVELAND, OH
700 PM EDT THU SEP 18 2014

NOTE: "FAIR" INDICATES FEW OR NO CLOUDS BELOW 12,000 FEET WITH NO
SIGNIFICANT WEATHER AND/OR OBSTRUCTIONS TO VISIBILITY.

OHZ001>008-015>018-024>027-034-035-043-044-190000-
   NORTHWEST OHIO

CITY           SKY/WX    TMP DP  RH WIND       PRES   REMARKS
DEFIANCE       PTCLDY    67  49  52 NE5       30.11R
FINDLAY        CLEAR     68  49  50 NE12      30.10S
TOLEDO EXPRESS CLEAR     65  52  62 E8        30.12S
TOLEDO EXEC    CLEAR     64  52  64 E7        30.13S
LIMA           CLEAR     68  50  52 NE7       30.10R
$$

OHZ009>014-019>023-028>033-038-089-190000-
   NORTHEAST OHIO

CITY           SKY/WX    TMP DP  RH WIND       PRES   REMARKS
CLE-HOPKINS    PTCLDY    61  52  72 N9        30.15S
CLE-LAKEFRONT  PTCLDY    61  52  72 NE10      30.13R
CUY CO. ARPT   PTCLDY    61  52  72 NE9       30.14R
LORAIN-ELYRIA  PTCLDY    64  52  64 NE9       30.14S
ASHTABULA      CLEAR     58  50  75 N3        30.14R
AKRON-CANTON   PTCLDY    63  49  60 N8        30.11R
WOOSTER        CLEAR     63  49  60 N8        30.13R
MANSFIELD      CLEAR     63  49  60 N10       30.12S
YOUNGSTOWN     PTCLDY    61  50  67 N9        30.12R
$$

OHZ042-051>053-060>062-070>072-077>081-190000-
  SOUTHWEST OHIO

CITY           SKY/WX    TMP DP  RH WIND       PRES   REMARKS
CINC-COVINGTON CLEAR     69  47  45 E10       30.06R
CINC-LUNKEN    CLEAR     69  48  47 NE7       30.06R
HAMILTON       CLEAR     70  48  45 E8        30.08R
DAYTON         PTCLDY    69  48  47 NE8       30.09R
WRIGHT-PAT AFB CLEAR     68  49  49 NE9       30.08R
DAYTON GENERAL CLEAR     68  48  48 E6        30.07S
WILMINGTON     CLEAR     66  46  48 NE8       30.08R
$$

OHZ036-037-039>041-045>050-054>059-063>069-073>076-082>088-190000-
  CENTRAL AND SOUTHEAST OHIO

CITY           SKY/WX    TMP DP  RH WIND       PRES   REMARKS
COLUMBUS       PTCLDY    69  47  45 E6        30.08S
OSU AIRPORT    PTCLDY    66  48  52 E7        30.08S
BOLTON FIELD   PTCLDY    68  48  49 NE8       30.09R
RICKENBACK AFB CLEAR     67  47  49 E8        30.08R
NEWARK         CLEAR     66  47  50 CALM      30.08S
MARION         CLEAR     66  49  54 NE12      30.10S
LANCASTER      CLEAR     67  47  48 E6        30.09S
ZANESVILLE     CLEAR     67  45  45 E3        30.09S
NEW PHILLY     MOCLDY    65  50  58 N6        30.10R
$$



USA.gov is the U.S. government's official web portal to all federal, state and local government web resources and services.